Location: Arboyeti
(42.1122°N, 44.6017°E)
Time: 21:23:15
(UTC+00:00)

Cosmos 2218 Rocket - Pass Details

Date: 19 April 2021
Orbit: 955 x 1006 km, 82.9° (Epoch: 18 May)

Event Time Altitude Azimuth Distance (km) Brightness Sun altitude
Rises 22:47:39 0° 350° (N) 3,647 7.6 -31.0°
Reaches altitude 10° 22:50:10 10° 348° (NNW) 2,700 6.8 -30.8°
Enters shadow 22:55:28 63° 313° (NW) 1,072 4.1 -30.2°
